Time,TemperatureF,DewpointF,PressureIn,WindDirection,WindDirectionDegrees,WindSpeedMPH,WindSpeedGustMPH,Humidity,HourlyPrecipIn,Conditions,Clouds,dailyrainin,SolarRadiationWatts/m^2,SoftwareType,DateUTC
2013-06-27 00:07:00,70.3,67.0,29.82,West,274,0.0,0.0,88,0.00,,,0.00,0,weatherlink.com 1.10,2013-06-27 04:07:00,
2013-06-27 00:22:00,69.9,67.0,29.82,West,274,0.0,0.0,89,0.00,,,0.00,0,weatherlink.com 1.10,2013-06-27 04:22:00,
2013-06-27 00:37:00,69.6,66.0,29.83,West,274,0.0,0.0,89,0.00,,,0.00,0,weatherlink.com 1.10,2013-06-27 04:37:00,
2013-06-27 00:52:00,69.3,66.0,29.83,West,274,0.0,0.0,90,0.00,,,0.00,0,weatherlink.com 1.10,2013-06-27 04:52:00,
2013-06-27 01:08:00,69.1,66.0,29.83,West,274,0.0,0.0,90,0.00,,,0.00,0,weatherlink.com 1.10,2013-06-27 05:08:00,
2013-06-27 01:23:00,68.8,66.0,29.82,West,274,0.0,0.0,90,0.00,,,0.00,0,weatherlink.com 1.10,2013-06-27 05:23:00,
2013-06-27 01:38:00,68.6,66.0,29.81,West,274,0.0,0.0,91,0.00,,,0.00,0,weatherlink.com 1.10,2013-06-27 05:38:00,
2013-06-27 01:53:00,68.2,66.0,29.81,West,274,0.0,0.0,91,0.00,,,0.00,0,weatherlink.com 1.10,2013-06-27 05:53:00,
2013-06-27 02:08:00,68.0,65.0,29.81,West,274,0.0,0.0,91,0.00,,,0.00,0,weatherlink.com 1.10,2013-06-27 06:08:00,
2013-06-27 02:23:00,67.7,65.0,29.80,West,274,0.0,0.0,91,0.00,,,0.00,0,weatherlink.com 1.10,2013-06-27 06:23:00,
2013-06-27 02:38:00,67.4,65.0,29.80,West,274,0.0,0.0,91,0.00,,,0.00,0,weatherlink.com 1.10,2013-06-27 06:38:00,
2013-06-27 02:53:00,67.1,65.0,29.80,West,274,0.0,0.0,92,0.00,,,0.00,0,weatherlink.com 1.10,2013-06-27 06:53:00,
2013-06-27 03:08:00,66.9,65.0,29.80,West,274,0.0,0.0,92,0.00,,,0.00,0,weatherlink.com 1.10,2013-06-27 07:08:00,
2013-06-27 03:23:00,66.6,64.0,29.80,West,274,0.0,0.0,92,0.00,,,0.00,0,weatherlink.com 1.10,2013-06-27 07:23:00,
2013-06-27 03:38:00,66.5,64.0,29.80,West,274,0.0,0.0,92,0.00,,,0.00,0,weatherlink.com 1.10,2013-06-27 07:38:00,
2013-06-27 03:53:00,66.4,64.0,29.80,West,274,0.0,0.0,93,0.00,,,0.00,0,weatherlink.com 1.10,2013-06-27 07:53:00,
2013-06-27 04:08:00,66.4,64.0,29.80,West,274,0.0,0.0,93,0.00,,,0.00,0,weatherlink.com 1.10,2013-06-27 08:08:00,
2013-06-27 04:23:00,66.6,65.0,29.80,West,274,0.0,0.0,93,0.00,,,0.00,0,weatherlink.com 1.10,2013-06-27 08:23:00,
2013-06-27 04:38:00,66.7,65.0,29.80,West,274,0.0,0.0,94,0.00,,,0.00,0,weatherlink.com 1.10,2013-06-27 08:38:00,
2013-06-27 04:53:00,66.8,65.0,29.80,West,274,0.0,1.0,94,0.00,,,0.00,0,weatherlink.com 1.10,2013-06-27 08:53:00,
2013-06-27 05:08:00,66.8,65.0,29.81,West,274,0.0,0.0,94,0.00,,,0.00,0,weatherlink.com 1.10,2013-06-27 09:08:00,
2013-06-27 05:23:00,66.8,65.0,29.82,West,274,0.0,0.0,94,0.00,,,0.00,0,weatherlink.com 1.10,2013-06-27 09:23:00,
2013-06-27 06:15:00,65.9,64.0,29.82,NW,308,0.0,0.0,94,0.00,,,0.00,18,weatherlink.com 1.10,2013-06-27 10:15:00,
2013-06-27 06:23:00,65.9,64.0,29.82,NW,308,0.0,0.0,94,0.00,,,0.00,23,weatherlink.com 1.10,2013-06-27 10:23:00,
2013-06-27 06:38:00,65.9,64.0,29.82,NW,308,0.0,0.0,94,0.00,,,0.00,32,weatherlink.com 1.10,2013-06-27 10:38:00,
2013-06-27 06:53:00,65.8,64.0,29.82,NW,308,0.0,1.0,94,0.00,,,0.00,40,weatherlink.com 1.10,2013-06-27 10:53:00,
2013-06-27 07:08:00,65.9,64.0,29.83,NW,308,0.0,0.0,94,0.00,,,0.00,46,weatherlink.com 1.10,2013-06-27 11:08:00,
2013-06-27 07:23:00,66.1,65.0,29.82,NW,308,0.0,0.0,95,0.00,,,0.00,35,weatherlink.com 1.10,2013-06-27 11:23:00,
2013-06-27 07:38:00,66.5,65.0,29.82,NW,308,0.0,0.0,95,0.00,,,0.00,39,weatherlink.com 1.10,2013-06-27 11:38:00,
2013-06-27 07:53:00,67.0,66.0,29.82,NW,308,0.0,1.0,95,0.00,,,0.00,42,weatherlink.com 1.10,2013-06-27 11:53:00,
2013-06-27 08:08:00,67.4,66.0,29.81,NW,308,0.0,0.0,95,0.00,,,0.00,46,weatherlink.com 1.10,2013-06-27 12:08:00,
2013-06-27 08:23:00,67.9,67.0,29.81,NW,308,0.0,1.0,95,0.00,,,0.00,49,weatherlink.com 1.10,2013-06-27 12:23:00,
2013-06-27 08:38:00,68.9,68.0,29.80,NW,309,2.0,2.0,95,0.00,,,0.00,51,weatherlink.com 1.10,2013-06-27 12:38:00,
2013-06-27 08:53:00,69.6,68.0,29.80,NW,309,0.0,2.0,95,0.00,,,0.00,54,weatherlink.com 1.10,2013-06-27 12:53:00,
2013-06-27 09:08:00,70.5,69.0,29.80,NW,309,0.0,1.0,95,0.00,,,0.00,58,weatherlink.com 1.10,2013-06-27 13:08:00,
2013-06-27 09:23:00,71.2,69.0,29.80,NW,309,0.0,1.0,94,0.00,,,0.00,67,weatherlink.com 1.10,2013-06-27 13:23:00,
2013-06-27 09:38:00,72.2,70.0,29.80,NW,309,0.0,1.0,94,0.00,,,0.00,77,weatherlink.com 1.10,2013-06-27 13:38:00,
2013-06-27 09:53:00,73.3,71.0,29.80,NW,309,0.0,1.0,92,0.00,,,0.00,86,weatherlink.com 1.10,2013-06-27 13:53:00,
2013-06-27 10:08:00,74.5,72.0,29.79,NW,309,1.0,1.0,90,0.00,,,0.00,102,weatherlink.com 1.10,2013-06-27 14:08:00,
2013-06-27 10:23:00,75.9,72.0,29.79,SW,223,2.0,2.0,88,0.00,,,0.00,116,weatherlink.com 1.10,2013-06-27 14:23:00,
2013-06-27 10:39:00,78.0,71.0,29.78,WSW,239,0.0,3.0,79,0.00,,,0.00,135,weatherlink.com 1.10,2013-06-27 14:39:00,
2013-06-27 10:54:00,78.4,71.0,29.79,SW,231,1.0,2.0,77,0.00,,,0.00,163,weatherlink.com 1.10,2013-06-27 14:54:00,
2013-06-27 11:09:00,79.2,71.0,29.78,SSW,205,1.0,2.0,77,0.00,,,0.00,167,weatherlink.com 1.10,2013-06-27 15:09:00,
2013-06-27 11:24:00,79.7,72.0,29.78,NW,315,2.0,3.0,76,0.00,,,0.00,791,weatherlink.com 1.10,2013-06-27 15:24:00,
2013-06-27 11:39:00,80.0,71.0,29.77,NNW,341,0.0,3.0,75,0.00,,,0.00,478,weatherlink.com 1.10,2013-06-27 15:39:00,
2013-06-27 11:54:00,80.5,71.0,29.77,North,5,1.0,5.0,73,0.00,,,0.00,557,weatherlink.com 1.10,2013-06-27 15:54:00,
2013-06-27 12:09:00,81.0,72.0,29.77,SW,217,1.0,3.0,75,0.00,,,0.00,445,weatherlink.com 1.10,2013-06-27 16:09:00,
2013-06-27 12:24:00,80.8,71.0,29.77,South,177,0.0,5.0,72,0.00,,,0.00,362,weatherlink.com 1.10,2013-06-27 16:24:00,
2013-06-27 12:39:00,80.6,72.0,29.76,South,182,0.0,3.0,74,0.00,,,0.00,485,weatherlink.com 1.10,2013-06-27 16:39:00,
2013-06-27 12:54:00,81.5,73.0,29.76,ESE,109,0.0,3.0,74,0.00,,,0.00,749,weatherlink.com 1.10,2013-06-27 16:54:00,
2013-06-27 13:09:00,81.9,72.0,29.75,SSW,200,1.0,2.0,71,0.00,,,0.00,828,weatherlink.com 1.10,2013-06-27 17:09:00,
2013-06-27 13:24:00,82.8,72.0,29.75,NNW,348,0.0,4.0,70,0.00,,,0.00,990,weatherlink.com 1.10,2013-06-27 17:24:00,
2013-06-27 13:39:00,82.9,72.0,29.75,SSE,150,0.0,3.0,70,0.00,,,0.00,733,weatherlink.com 1.10,2013-06-27 17:39:00,
2013-06-27 13:54:00,83.1,72.0,29.74,West,270,1.0,1.0,70,0.00,,,0.00,315,weatherlink.com 1.10,2013-06-27 17:54:00,
2013-06-27 14:09:00,83.6,72.0,29.73,WNW,301,0.0,3.0,68,0.00,,,0.00,661,weatherlink.com 1.10,2013-06-27 18:09:00,
2013-06-27 14:24:00,83.2,73.0,29.73,West,273,1.0,1.0,72,0.00,,,0.00,990,weatherlink.com 1.10,2013-06-27 18:24:00,
2013-06-27 14:39:00,84.1,71.0,29.72,NW,308,1.0,3.0,65,0.00,,,0.00,940,weatherlink.com 1.10,2013-06-27 18:39:00,
2013-06-27 14:54:00,85.7,72.0,29.72,SW,222,0.0,3.0,63,0.00,,,0.00,805,weatherlink.com 1.10,2013-06-27 18:54:00,
2013-06-27 15:09:00,83.7,72.0,29.72,WSW,255,2.0,2.0,68,0.00,,,0.00,791,weatherlink.com 1.10,2013-06-27 19:09:00,
2013-06-27 15:24:00,85.4,73.0,29.72,NW,308,0.0,2.0,67,0.00,,,0.00,724,weatherlink.com 1.10,2013-06-27 19:24:00,
2013-06-27 15:39:00,85.0,71.0,29.71,South,174,0.0,3.0,63,0.00,,,0.00,503,weatherlink.com 1.10,2013-06-27 19:39:00,
2013-06-27 15:54:00,83.3,72.0,29.71,South,174,1.0,2.0,68,0.00,,,0.00,550,weatherlink.com 1.10,2013-06-27 19:54:00,
2013-06-27 16:09:00,85.3,71.0,29.70,NNW,331,1.0,6.0,63,0.00,,,0.00,701,weatherlink.com 1.10,2013-06-27 20:09:00,
2013-06-27 16:24:00,85.1,72.0,29.70,NW,313,1.0,2.0,64,0.00,,,0.00,494,weatherlink.com 1.10,2013-06-27 20:24:00,
2013-06-27 16:54:00,82.9,72.0,29.69,WSW,248,0.0,1.0,69,0.00,,,0.00,278,weatherlink.com 1.10,2013-06-27 20:54:00,
2013-06-27 17:09:00,82.5,72.0,29.68,WSW,248,0.0,1.0,70,0.00,,,0.00,197,weatherlink.com 1.10,2013-06-27 21:09:00,
2013-06-27 17:24:00,83.1,71.0,29.68,WSW,248,1.0,1.0,67,0.00,,,0.00,195,weatherlink.com 1.10,2013-06-27 21:24:00,
2013-06-27 17:40:00,84.0,73.0,29.68,WSW,248,0.0,1.0,69,0.00,,,0.00,250,weatherlink.com 1.10,2013-06-27 21:40:00,
2013-06-27 17:55:00,82.8,71.0,29.68,WSW,248,0.0,1.0,67,0.00,,,0.00,223,weatherlink.com 1.10,2013-06-27 21:55:00,
2013-06-27 18:10:00,81.7,71.0,29.67,WSW,248,0.0,2.0,71,0.00,,,0.00,107,weatherlink.com 1.10,2013-06-27 22:10:00,
2013-06-27 18:40:00,80.1,72.0,29.67,WSW,248,0.0,2.0,75,0.00,,,0.00,23,weatherlink.com 1.10,2013-06-27 22:40:00,
2013-06-27 18:55:00,79.8,72.0,29.67,WSW,248,0.0,2.0,76,0.00,,,0.00,11,weatherlink.com 1.10,2013-06-27 22:55:00,
2013-06-27 19:10:00,79.4,70.0,29.68,NW,326,1.0,4.0,74,0.00,,,0.00,23,weatherlink.com 1.10,2013-06-27 23:10:00,
2013-06-27 19:40:00,77.9,70.0,29.68,SE,141,0.0,2.0,77,0.00,,,0.00,21,weatherlink.com 1.10,2013-06-27 23:40:00,
2013-06-27 19:55:00,77.4,70.0,29.68,SE,141,0.0,1.0,79,0.00,,,0.00,11,weatherlink.com 1.10,2013-06-27 23:55:00,
2013-06-27 20:10:00,77.1,71.0,29.68,SE,141,0.0,1.0,80,0.00,,,0.00,0,weatherlink.com 1.10,2013-06-28 00:10:00,
2013-06-27 20:25:00,77.0,71.0,29.67,SE,141,0.0,1.0,81,0.00,,,0.00,0,weatherlink.com 1.10,2013-06-28 00:25:00,
2013-06-27 20:55:00,75.8,70.0,29.67,SE,141,0.0,1.0,83,0.00,,,0.00,0,weatherlink.com 1.10,2013-06-28 00:55:00,
2013-06-27 21:10:00,75.5,70.0,29.67,SE,141,0.0,0.0,84,0.00,,,0.00,0,weatherlink.com 1.10,2013-06-28 01:10:00,
2013-06-27 21:40:00,75.0,70.0,29.66,SE,141,0.0,0.0,85,0.00,,,0.00,0,weatherlink.com 1.10,2013-06-28 01:40:00,
2013-06-27 21:55:00,74.5,71.0,29.65,SE,141,0.0,2.0,87,0.00,,,0.00,0,weatherlink.com 1.10,2013-06-28 01:55:00,
2013-06-27 22:10:00,74.0,70.0,29.65,SE,141,0.0,1.0,88,0.00,,,0.00,0,weatherlink.com 1.10,2013-06-28 02:10:00,
2013-06-27 22:40:00,73.7,70.0,29.63,SSW,210,0.0,1.0,88,0.01,,,0.01,0,weatherlink.com 1.10,2013-06-28 02:40:00,
2013-06-27 22:55:00,73.2,69.0,29.62,SSW,210,0.0,2.0,87,0.01,,,0.01,0,weatherlink.com 1.10,2013-06-28 02:55:00,
2013-06-27 23:25:00,71.9,70.0,29.59,SSW,210,0.0,0.0,92,0.07,,,0.08,0,weatherlink.com 1.10,2013-06-28 03:25:00,
2013-06-27 23:40:00,71.5,70.0,29.58,SSW,210,0.0,0.0,94,0.12,,,0.13,0,weatherlink.com 1.10,2013-06-28 03:40:00,